COSMOS 2251 DEB, 39591

Orbit data source: Space-Track

COSMOS 2251 DEB, 39591 is space debris in LEO originally from a launch on Wed, 16 Jun 1993 UTC launched from the Plesetsk Missile And Space Complex (PKMTR). The debris from Iridium 33, an American commercial communications satellite, has been tracked extensively since its accidental collision with the defunct Russian satellite Cosmos 2251 in 2009. This event, occurring at high speed in low Earth orbit (LEO), generated thousands of pieces of space debris, significantly increasing the risk of further collisions. The Iridium 33 debris cloud has impacted space traffic management and orbital debris mitigation strategies, making it a subject of ongoing study in space situational awareness.

Loading next visibility...
Identifier
39591, 1993-036BUW
Orbit
LEO
Country
Flag of CISCIS
Related business
Manufacturer
Unknown
Mission
Spacecraft
Bus & Motor
Unknown
Mass
Unknown
Launch date (UTC)
1993-06-16 (33 years ago)
Launch vehicle
Unknown
Launch site
Plesetsk Missile And Space Complex (PKMTR)
Object type
Payload
Rocket body
Debris
Shape & HBR
Unknown shape, 0.1 m
Radar Cross Section
Small (<0.1 m²)

Expand to show TLE details & history
Last TLE update: 3 days ago

TLE from 3 days ago
0 COSMOS 2251 DEB
1 39591U 93036BUW 26032.10145272  .00001554  00000-0  47933-3 0  9997
2 39591  74.0243 153.3411 0030533 258.2017 283.7961 14.41974109625027
Epoch: 2026-02-01T02:26Z
TLE epoch observation values (Epoch: 2026-02-01T02:26:05.515Z)
Latitude
-1.71524°
Longitude
165.99078°
Altitude
749.71 km
Speed
7.483 km/s
True Right ascension
22h 15m 19s
True Declination
-1° 42' 18"
Sunlit
Object was in daylight at epoch
Visualization orbit readout
Latitude
Unknown
Longitude
Unknown
Altitude
Unknown
Speed
Unknown
Apparent Right ascension
Unknown
Apparent Declination
Unknown
Sunlit
N/A
Visualization observer readout
Local Sidereal Time
22:46:11
Azimuth
Unknown
Elevation
Unknown
Doppler factor
Unknown
Orbital elements
Apogee altitude
771.365 km
Perigee altitude
727.839 km
Semi-major axis
7,127.739 km
Eccentricity
0.00305
Inclination
74.0243°
RAAN
153.3411°
Arg. of periapsis
258.2017°
True anomaly
283.456°
Mean anomaly
283.7961°
Eccentric anomaly
283.62608°
Mean motion
3.60675 °/min
Orbital period
99.81 mins
BSTAR
0.00047933
Loading maneuver chart data...
Computing Atmospheric mass density...

Documentation

Showing up to 5 results
|